Location: Vanderbilt Planetarium & Observatory
(40.9052°N, 73.3671°W)
Time: 13:09:28
(UTC-05:00)

Daily predictions for brighter satellites

Satellite Brightness Start Highest point End
(mag) Time Altitude Azimuth Time Altitude Azimuth Time Altitude Azimuth
Cosmos 2237 Rocket 2.2 17:23:00 10° SSW 17:28:36 74° ESE 17:34:15 10° NNE
CZ-2C R/B 2.7 17:24:27 10° S 17:29:25 74° WSW 17:34:15 10° NNW
Cosmos 1743 Rocket 4.1 17:25:02 10° SSW 17:29:28 66° W 17:33:57 10° N
Cosmos 1328 Rocket 4.2 17:25:28 10° NNW 17:29:53 63° W 17:34:16 10° S
CENTAUR R/B 3.7 17:24:23 10° WSW 17:30:09 40° NW 17:36:39 10° NNE
Cosmos 1151 Rocket 2.9 17:29:45 10° N 17:34:02 70° E 17:38:19 10° SSE
Cosmos 1300 2.6 17:31:42 10° N 17:35:31 68° E 17:39:20 10° SSE
COSMOS 2428 4.2 17:31:12 10° WSW 17:36:22 34° WNW 17:41:33 10° N
SL-16 R/B 2.8 17:31:18 10° S 17:36:22 36° ESE 17:41:28 10° NE
Cosmos 1125 Rocket 3.6 17:34:41 10° NNW 17:39:55 83° WSW 17:45:06 10° SSE
Lacrosse 4 Rocket 3.2 17:38:32 10° NNE 17:40:28 13° NE 17:42:02 11° ENE
Cosmos 44 3.7 17:35:17 10° SW 17:40:32 72° WNW 17:45:35 10° NNE
COSMOS 2441 4.3 17:35:49 10° SSE 17:40:40 80° ENE 17:45:31 10° N
Cosmos 1515 Rocket 4.2 17:37:15 10° NNW 17:41:40 63° W 17:46:02 10° S
SL-14 R/B 3.2 17:39:45 10° S 17:43:40 81° E 17:47:40 10° N
Cosmos 1340 Rocket 3.0 17:41:14 10° SSE 17:45:00 46° E 17:48:46 10° NNE
Cosmos 1484 Rocket 2.8 17:42:28 10° SSE 17:46:23 69° ENE 17:50:22 10° N
ALOS 3.8 17:44:12 10° E 17:46:50 15° ENE 17:49:28 10° NNE
Cosmos 1805 Rocket 4.1 17:43:55 10° SSE 17:48:02 38° E 17:52:11 10° NNE
Cosmos 2297 3.9 17:43:06 10° NNW 17:48:38 49° ENE 17:54:10 10° SE
SKYMED 2 3.6 17:45:13 10° NNE 17:49:31 58° E 17:53:47 10° S
Meteor 2-10 3.9 17:46:28 10° N 17:51:35 69° E 17:56:49 10° SSE
Thor Agena Rocket 4.0 17:47:42 10° N 17:52:54 68° WNW 17:58:01 10° SSW
Cosmos 1184 Rocket 4.3 17:50:44 10° SE 17:53:09 19° E 17:54:19 16° ENE
SPOT 3 Rocket 4.4 17:50:40 10° S 17:55:41 55° W 18:00:47 10° NNW
Iridium 4 Rocket 4.5 17:53:33 10° SE 17:56:31 18° E 17:58:22 14° NE
Cosmos 2058 2.8 17:53:52 10° S 17:57:58 86° E 18:02:05 10° N
Meteor 1-28 Rocket 3.3 17:56:43 10° NNE 18:00:21 50° E 18:03:59 10° S
Cosmos 1538 Rocket 4.3 17:55:44 10° S 18:00:44 45° ESE 18:05:50 10° NNE
Cosmos 1461 2.8 17:56:59 10° SSW 18:01:09 65° ESE 18:04:37 14° NE
Sich 1 3.6 17:59:18 10° SSE 18:03:21 36° E 18:07:25 10° NNE
FENGYUN 3A 4.5 18:04:38 10° ESE 18:09:03 27° ENE 18:13:30 10° N
METEOR-M 4.2 18:06:34 10° SSE 18:11:44 52° ENE 18:16:56 10° N
Cosmos 1633 Rocket 3.5 18:08:05 10° SSE 18:12:11 39° E 18:16:17 10° NNE
Aureole 1 Rocket 4.2 18:11:50 10° SSE 18:16:50 43° E 18:23:17 10° NNE
Abrixas 3.6 18:15:41 10° W 18:18:23 33° NNW 18:19:25 25° NNE
Cosmos 1356 Rocket 3.2 18:14:55 10° S 18:18:51 62° E 18:22:48 10° NNE
ATLAS 5 CENTAUR R/B 4.2 18:21:16 10° N 18:23:20 12° NNE 18:23:48 12° NNE
NOAA 12 4.0 18:18:58 10° SSE 18:24:10 73° ENE 18:29:27 10° N
Lacrosse 5 rocket 2.7 18:22:21 10° WNW 18:25:54 37° SW 18:29:38 10° SSE
FREGAT/IRIS 2.6 18:24:03 10° SSE 18:27:01 53° ENE 18:30:01 10° N
H-2A ROCKET BODY 4.2 17:59:35 10° WSW 18:27:39 42° S 18:33:03 14° SE
Aureole 2 Rocket 4.3 18:24:13 10° SW 18:27:42 34° WNW 18:31:26 10° N
Coronas F rocket 3.8 18:29:01 10° S 18:29:10 11° S 18:29:10 11° S
BREEZE-M DEB (TANK) 2.3 18:30:25 10° WSW 18:32:42 53° NNW 18:33:02 47° N
Cosmos 1626 2.2 18:30:29 10° S 18:34:13 77° W 18:37:58 10° N
Cosmos 2219 Rocket 4.4 18:32:10 10° W 18:36:22 21° NW 18:40:36 10° N
Cosmos 1707 Rocket 3.7 18:32:47 10° N 18:37:07 75° W 18:41:26 10° S
COSMO-SKYMED 1 3.9 18:33:24 10° N 18:37:29 40° WNW 18:41:32 10° SW
FengYun 1-2 T 4.3 18:32:38 10° SE 18:38:00 51° ENE 18:43:20 10° N
Cosmos 773 Rocket 3.9 18:33:39 10° S 18:38:45 67° ESE 18:42:09 22° NNE
Cosmos 2333 Rocket 4.2 18:34:26 10° WSW 18:39:02 25° NW 18:43:41 10° N
Cosmos 1603 3.9 18:35:42 10° S 18:40:59 44° ESE 18:42:36 35° ENE
BREEZE M DEB (TANK) 1.9 18:39:00 10° WNW 18:40:58 51° WSW 18:40:58 51° WSW
USA 215 3.2 18:37:34 20° ESE 18:42:16 70° NE 18:48:48 10° NW
Cosmos 1666 Rocket 3.9 18:43:02 10° SSW 18:47:20 66° W 18:51:43 10° N
Resurs 01 Rocket 1.6 18:49:20 44° ESE 18:50:24 57° ENE 18:54:46 10° N
CZ-4C R/B 4.4 18:46:30 10° N 18:50:25 16° NNE 18:50:36 16° NNE
Cosmos 1455 2.6 18:47:42 10° NNW 18:51:28 63° W 18:55:14 10° S
SJ-6B 3.3 18:49:19 10° S 18:53:22 65° W 18:57:29 10° NNW
Cosmos 1933 Rocket 4.1 18:54:31 10° S 18:57:42 43° SSE 18:57:42 43° SSE
Cosmos 1627 Rocket 4.5 18:52:55 10° SSE 18:58:54 54° E 19:02:02 28° NNE
Lacrosse 5 3.9 18:56:36 10° NNW 18:59:05 14° N 18:59:05 14° N
Tiangong 1 3.8 19:02:30 10° SSW 19:02:54 12° SSW 19:02:54 12° SSW
Cosmos 2369 Rocket 3.4 19:12:14 10° N 19:15:08 27° N 19:15:08 27° N
Lacrosse 4 Rocket 2.3 19:15:36 10° NNW 19:18:28 43° NW 19:18:28 43° NW
Cosmos 1470 Rocket 4.1 19:15:57 10° SSW 19:19:23 53° SW 19:19:23 53° SW
SL-16 R/B 3.7 19:15:24 10° WSW 19:20:28 33° WNW 19:24:59 13° N
ALOS 2.7 19:19:11 10° S 19:23:46 59° W 19:28:24 10° NNW
Spot 2 Rocket 3.7 19:20:47 10° S 19:25:47 66° WSW 19:30:50 10° NNW
USA 229 DEB 3.8 19:20:16 10° SW 19:27:06 70° NW 19:29:44 40° NNE
USA 229 3.8 19:20:21 10° SW 19:27:11 71° NW 19:29:47 41° NNE
Cosmos 2026 Rocket 3.8 19:21:52 10° S 19:28:05 83° E 19:29:03 65° NNE
Cosmos 292 Rocket 4.4 19:31:15 10° SSW 19:35:12 51° WSW 19:35:12 51° WSW
ATLAS 5 CENTAUR R/B 4.4 20:03:59 10° NNW 20:05:22 17° NNW 20:05:22 17° NNW
USA 215 4.5 20:24:56 33° SW 20:25:32 33° SW 20:31:22 10° WNW
